Location: Lecco
(45.8566°N, 9.3977°E)
Time: 07:41:48
(UTC+02:00)

Altair - Pass Details

Date: 15 August 2020
Orbit: 1501 x 1682 km, 47.2° (Epoch: 25 September)

Event Time Altitude Azimuth Distance (km) Brightness Sun altitude
Rises 04:59:32 0° 263° (W) 4,796 - -13.5°
Exits shadow 05:02:30 - 265° (W) 3,842 9.1 -13.0°
Reaches altitude 10° 05:02:40 10° 265° (W) 3,787 9.0 -13.0°
Maximum altitude 05:12:17 84° 353° (N) 1,553 7.6 -11.7°
Drops below altitude 10° 05:21:35 10° 83° (E) 3,670 10.6 -10.3°
Sets 05:24:35 0° 85° (E) 4,642 11.3 -9.9°
